Regional Weather Roundup
Issued by NWS Austin/San Antonio, TX

Home | Current Version | Previous Version | Text Only | Print | Product List | Glossary On
Versions: 1 2 3 4 5 6 7 8 9 10 11 12 13 14 15 16 17 18 19 20 21 22 23 24 25 26 27 28 29 30 31 32 33 34 35 36 37 38 39 40 41 42 43 44 45 46 47 48 49 50
000
ASUS44 KEWX 280611
RWREWX
SOUTH TEXAS REGIONAL WEATHER ROUNDUP
NATIONAL WEATHER SERVICE AUSTIN/SAN ANTONIO TX
100 AM CDT FRI APR 28 2017

NOTE: "FAIR" INDICATED FEW OR NO CLOUDS BELOW 12,000 FEET WITH NO
SIGNIFICANT WEATHER AND/OR OBSTRUCTIONS TO VISIBILITY.

* - THESE STATIONS ARE NOT NWS OR FAA STATIONS...AND ARE NOT SUBJECT
    TO NWS AND FAA QUALITY CONTROL.

TXZ171-172-183>190-280700-
TEXAS HILL COUNTRY AND EDWARDS PLATEAU

CITY           SKY/WX    TMP DP  RH WIND       PRES   REMARKS
JUNCTION       CLOUDY    74  63  68 S12G17    29.59S
6HR MIN TEMP:  74; 6HR MAX TEMP:  82;

*LLANO         CLOUDY    70  61  73 SE3       29.62S
BURNET         CLOUDY    69  61  75 S9G17     29.62F
6HR MIN TEMP:  69; 6HR MAX TEMP:  80;

*HORSESHOE BAY CLOUDY    70  63  79 SE9       29.61R
6HR MIN TEMP:  70; 6HR MAX TEMP:  82;

*KERRVILLE     CLOUDY    69  66  89 SE12G18   29.63F
6HR MIN TEMP:  69; 6HR MAX TEMP:  79;

*FREDERICKSBRG CLOUDY    68  61  76 S8        29.62F
6HR MIN TEMP:  68; 6HR MAX TEMP:  78;

*ROCKSPRINGS   CLOUDY    70  64  83 S17G25    29.64F
*BOERNE STAGE  CLOUDY    64  61  88 S13G18    29.65F
*CASTROVILLE   CLOUDY    70  64  80 SE12      29.65S
HONDO          LGT RAIN  70  66  87 SE15      29.63F
6HR MIN TEMP:  70; 6HR MAX TEMP:  86; 6HR PCP: TRACE;

*UVALDE        CLOUDY    70  66  88 SE9       29.61F
6HR MIN TEMP:  70; 6HR MAX TEMP:  85;

DEL RIO        CLEAR     76  62  62 SE12      29.54F
6HR MIN TEMP:  76; 6HR MAX TEMP:  86;

LAUGHLIN AFB   MOCLDY    75  64  69 SE16      29.56S
6HR MIN TEMP:  73; 6HR MAX TEMP:  86;

CARRIZO SPRGS  CLEAR     72  68  88 SE9G17    29.58S
*EAGLE PASS    NOT AVBL
$$

TXZ173-191>194-202-209-217>225-228-280700-
CENTRAL AND SOUTH CENTRAL TEXAS

CITY           SKY/WX    TMP DP  RH WIND       PRES   REMARKS
GEORGETOWN     CLOUDY    70  61  73 S16G23    29.62S
6HR MIN TEMP:  70; 6HR MAX TEMP:  81;

AUSTIN/BERGSTM CLOUDY    72  64  76 S17G25    29.62F
6HR MIN TEMP:  70; 6HR MAX TEMP:  82;

AUSTIN/MABRY   CLOUDY    70  63  78 S10G20    29.63F
6HR MIN TEMP:  70; 6HR MAX TEMP:  81;

*AUSTIN/EXEC   CLOUDY    68  64  88 S9G20     29.63F
*LAGO VISTA    CLOUDY    69  64  84 S14G20    29.63S
6HR MIN TEMP:  69; 6HR MAX TEMP:  80;

SAN MARCOS     CLOUDY    70  63  78 S15       29.64F
6HR MIN TEMP:  70; 6HR MAX TEMP:  81;

NEW BRAUNFELS  CLOUDY    71  64  78 S15       29.63F
6HR MIN TEMP:  70; 6HR MAX TEMP:  83;

RANDOLPH AFB   CLOUDY    70  67  91 S13       29.63F
6HR MIN TEMP:  68; 6HR MAX TEMP:  82;

PT SAN ANTONIO CLOUDY    70  65  83 SE13      29.62F
6HR MIN TEMP:  70; 6HR MAX TEMP:  84;

SAN ANTONIO    CLOUDY    70  64  81 SE15      29.64F
6HR MIN TEMP:  69; 6HR MAX TEMP:  84;

STINSON FIELD  CLOUDY    72  64  76 SE14      29.62F
6HR MIN TEMP:  70; 6HR MAX TEMP:  85;

*LA GRANGE     CLOUDY    72  68  88 S6        29.62F
6HR MIN TEMP:  72; 6HR MAX TEMP:  80;

*GIDDINGS      CLOUDY    70  64  81 S12G18    29.65S
6HR MIN TEMP:  70; 6HR MAX TEMP:  78;

*GONZALES      CLOUDY    72  69  91 SE7       29.64S
6HR MIN TEMP:  70; 6HR MAX TEMP:  82;

$$

TXZ163>164-176>182-195>201-210>213-226-227-235-280700-
SOUTHEAST TEXAS

CITY           SKY/WX    TMP DP  RH WIND       PRES   REMARKS
COLLEGE STN    CLOUDY    70  64  81 S20G28    29.64F
6HR MIN TEMP:  70; 6HR MAX TEMP:  78;

*BRYAN         CLOUDY    69  63  81 S18G26    29.65F
6HR MIN TEMP:  65; 6HR MAX TEMP:  76;

*CALDWELL      NOT AVBL
*CROCKETT      CLOUDY    64  55  72 SE7       29.68F
*BRENHAM       CLOUDY    71  66  84 SE6       29.66S
6HR MIN TEMP:  70; 6HR MAX TEMP:  80;

HUNTSVILLE     CLOUDY    70  62  76 S7        29.67R
6HR MIN TEMP:  69; 6HR MAX TEMP:  78;

CONROE         CLOUDY    69  64  84 S7        29.68S
6HR MIN TEMP:  66; 6HR MAX TEMP:  77;

HOUSTON BUSH   CLOUDY    74  67  78 S8        29.67F
6HR MIN TEMP:  70; 6HR MAX TEMP:  76;

HOUSTON HOBBY  CLOUDY    74  69  85 SE7       29.66F
6HR MIN TEMP:  70; 6HR MAX TEMP:  74;

*HOUSTON SW AP CLOUDY    73  68  86 S7        29.67F
6HR MIN TEMP:  67; 6HR MAX TEMP:  75;

PEARLAND       CLOUDY    77  70  79 SE7       29.68F
6HR MIN TEMP:  72; 6HR MAX TEMP:  77;

HOUSTON HOOKS  CLOUDY    73  66  78 S6        29.67F
6HR MIN TEMP:  70; 6HR MAX TEMP:  78;

ELLINGTON FLD  CLOUDY    75  64  69 SE6       29.68F
SUGAR LAND     CLOUDY    74  69  85 SE8       29.66F
6HR MIN TEMP:  71; 6HR MAX TEMP:  79;

*HOUSTON EXEC  CLOUDY    72  66  83 SE5       29.68S
*CLEVELAND MUN CLOUDY    70  65  85 S5        29.68F
6HR MIN TEMP:  66; 6HR MAX TEMP:  76;

*WHARTON       CLOUDY    72  67  83 SE5       29.67S
6HR MIN TEMP:  70; 6HR MAX TEMP:  78;

*COLUMBUS      CLOUDY    70  66  87 SE5       29.66F
6HR MIN TEMP:  70; 6HR MAX TEMP:  80;

*EAGLE LAKE    CLOUDY    72  69  89 S5        29.66S
6HR MIN TEMP:  71; 6HR MAX TEMP:  81;

$$

TXZ214>216-236>238-280700-
THE UPPER TEXAS COAST

CITY           SKY/WX    TMP DP  RH WIND       PRES   REMARKS
*ORANGE        CLOUDY    75  71  87 S9        29.71F
6HR MIN TEMP:  72; 6HR MAX TEMP:  78;

PORT ARTHUR    CLOUDY    76  70  82 SE14      29.68F
6HR MIN TEMP:  70; 6HR MAX TEMP:  78;

GALVESTON      CLOUDY    77  73  87 SE13      29.68F
6HR MIN TEMP:  73; 6HR MAX TEMP:  77;

ANGLETON       CLOUDY    77  72  84 SE5       29.67S
6HR MIN TEMP:  72; 6HR MAX TEMP:  77;

*BAY CITY      CLOUDY    76  72  87 SE5       29.66F
PALACIOS       CLOUDY    76  71  85 SE8       29.64F
6HR MIN TEMP:  73; 6HR MAX TEMP:  76;

$$

TXZ229>234-239>247-280700-
TEXAS COASTAL BEND AND RIO GRANDE PLAINS

CITY           SKY/WX    TMP DP  RH WIND       PRES   REMARKS
VICTORIA       CLOUDY    75  69  81 SE9       29.64F
6HR MIN TEMP:  72; 6HR MAX TEMP:  76;

*BEEVILLE      CLOUDY    75  75 100 SE9       29.63F
6HR MIN TEMP:  73; 6HR MAX TEMP:  81;

ROCKPORT       CLOUDY    77  71  82 SE13      29.62F
6HR MIN TEMP:  75; 6HR MAX TEMP:  77;

*PORT ARANSAS  CLOUDY    76  72  88 SE12      29.62F
6HR MIN TEMP:  74; 6HR MAX TEMP:  76;

*PORT LAVACA   CLOUDY    75  73  92 CALM      29.65S
6HR MIN TEMP:  73; 6HR MAX TEMP:  75;

*INGLESIDE     CLOUDY    77  73  86 SE3       29.62F
CORPUS CHRISTI CLOUDY    76  72  87 SE16      29.62F
6HR MIN TEMP:  75; 6HR MAX TEMP:  77;

CORPUS NAS     CLOUDY    78  74  87 SE14      29.61F
6HR MIN TEMP:  76; 6HR MAX TEMP:  78;

*ROBSTOWN      CLOUDY    77  72  83 SE9       29.62F
6HR MIN TEMP:  76; 6HR MAX TEMP:  78;

ALICE          CLOUDY    74  70  87 SE9       29.60F
6HR MIN TEMP:  74; 6HR MAX TEMP:  79;

KINGSVILLE NAS CLOUDY    78  74  87 SE12G23   29.61F
6HR MIN TEMP:  75; 6HR MAX TEMP:  78;

COTULLA        MOCLDY    73  66  78 SE9       29.60F
6HR MIN TEMP:  73; 6HR MAX TEMP:  91;

*FAITH RANCH   CLEAR     77  68  73 SE13G21   29.58S
LAREDO         CLEAR     75  69  81 SE13      29.58F
6HR MIN TEMP:  75; 6HR MAX TEMP:  91;

$$

TXZ248>255-280700-
DEEP SOUTH TEXAS

CITY           SKY/WX    TMP DP  RH WIND       PRES   REMARKS
BROWNSVILLE    CLOUDY    77  72  84 SE8       29.63F
6HR MIN TEMP:  76; 6HR MAX TEMP:  82;

PORT ISABEL    CLOUDY    76  72  87 SE9       29.62F FOG
6HR MIN T


USA.gov is the U.S. government's official web portal to all federal, state and local government web resources and services.